Date,TemperatureHighF,TemperatureAvgF,TemperatureLowF,DewpointHighF,DewpointAvgF,DewpointLowF,HumidityHigh,HumidityAvg,HumidityLow,PressureMaxIn,PressureMinIn,WindSpeedMaxMPH,WindSpeedAvgMPH,GustSpeedMaxMPH,PrecipitationSumIn
2013-1-1,85.4,80.9,75.1,75.0,73.4,71.0,91,78,69,29.97,29.85,15,6,19,0.02
2013-1-2,86.0,81.6,78.5,75.0,73.5,72.0,84,76,65,29.94,29.83,16,8,21,0.00
2013-1-3,86.5,81.7,78.5,76.0,74.1,71.0,87,77,67,29.98,29.88,16,7,21,0.00
2013-1-4,85.7,81.1,77.9,76.0,74.4,72.0,87,80,68,30.03,29.91,16,7,22,0.02
2013-1-5,86.8,80.8,76.7,77.0,74.8,74.0,94,82,68,30.01,29.91,17,7,21,0.21
2013-1-6,83.5,79.2,75.5,77.0,75.1,73.0,95,87,79,29.98,29.86,15,7,22,0.49
2013-1-7,83.4,78.6,76.2,77.0,74.9,73.0,95,88,79,29.96,29.86,18,7,21,0.46
2013-1-8,84.1,80.5,77.5,77.0,75.1,73.0,92,83,76,29.97,29.86,16,9,23,0.06
2013-1-9,85.2,81.1,76.8,76.0,74.2,73.0,93,80,68,30.01,29.89,17,8,23,0.05
2013-1-10,84.3,79.5,75.4,76.0,73.7,70.0,93,82,72,30.00,29.90,17,7,23,0.15
2013-1-11,84.7,79.4,74.1,76.0,73.2,72.0,94,81,70,29.95,29.84,15,6,18,0.16
2013-1-12,84.5,78.2,72.2,76.0,72.1,69.0,96,82,64,29.91,29.82,13,5,19,0.22
2013-1-13,84.1,79.6,76.2,74.0,72.3,71.0,84,78,69,29.94,29.83,12,5,17,0.00
2013-1-14,84.0,80.1,77.1,74.0,72.0,71.0,83,77,66,29.97,29.84,10,5,17,0.00
2013-1-15,79.9,77.4,75.0,76.0,73.2,72.0,95,87,82,29.94,29.84,11,5,19,0.39
2013-1-16,83.6,78.4,72.5,74.0,72.0,71.0,96,81,68,29.96,29.84,10,5,24,0.07
2013-1-17,84.5,79.0,73.7,75.0,72.3,69.0,89,80,70,29.97,29.86,13,5,18,0.02
2013-1-18,84.1,79.5,76.6,75.0,72.6,71.0,85,79,70,30.02,29.88,13,5,22,0.00
2013-1-19,84.9,79.5,76.8,74.0,72.0,71.0,84,78,67,30.00,29.88,19,5,19,0.00
2013-1-20,85.3,80.0,76.8,74.0,72.1,71.0,84,77,65,29.98,29.85,12,5,19,0.00
2013-1-21,84.9,80.8,78.1,75.0,73.2,72.0,83,78,69,29.94,29.84,15,6,21,0.00
2013-1-22,85.4,81.3,78.7,76.0,74.0,72.0,84,78,69,29.97,29.86,15,8,24,0.00
2013-1-23,85.6,81.0,77.8,75.0,73.3,72.0,88,78,66,30.02,29.90,19,6,19,0.00
2013-1-24,85.1,80.9,78.7,75.0,74.0,72.0,86,79,70,30.00,29.89,14,6,21,0.02
2013-1-25,85.1,80.4,76.2,74.0,73.3,72.0,91,79,68,30.00,29.89,12,6,19,0.17
2013-1-26,85.1,80.4,77.3,75.0,73.3,71.0,89,79,68,29.99,29.89,13,6,22,0.01
2013-1-27,85.6,81.2,77.3,75.0,73.6,70.0,88,78,68,30.01,29.90,16,7,19,0.01
2013-1-28,84.7,80.2,75.7,76.0,73.6,70.0,94,80,70,30.06,29.94,15,6,22,0.08
2013-1-29,85.2,80.8,78.4,75.0,73.1,72.0,85,77,69,30.01,29.89,16,7,19,0.00
2013-1-30,84.8,80.5,76.8,74.0,72.4,70.0,88,76,66,29.98,29.87,17,8,22,0.00
2013-1-31,85.3,80.7,77.1,75.0,73.3,72.0,88,78,68,29.96,29.85,16,8,24,0.00
2013-2-1,84.8,80.0,75.0,75.0,73.1,71.0,92,79,69,29.96,29.87,22,7,22,0.14
2013-2-2,85.1,79.4,74.9,75.0,73.0,71.0,93,81,68,29.99,29.86,15,6,21,0.10
2013-2-3,85.2,79.5,75.1,75.0,73.3,72.0,91,82,70,29.93,29.82,14,4,16,0.00
2013-2-4,84.0,80.0,77.9,73.0,71.5,68.0,84,76,67,29.93,29.82,15,6,19,0.00
2013-2-5,85.4,79.8,76.0,73.0,70.6,68.0,81,74,64,29.95,29.85,14,5,16,0.00
2013-2-6,85.2,80.0,76.4,74.0,71.6,69.0,86,76,65,29.95,29.84,11,5,15,0.00
2013-2-7,85.8,80.9,77.8,76.0,74.0,72.0,87,80,66,29.92,29.81,14,6,19,0.00
2013-2-8,85.4,81.0,78.3,75.0,73.2,72.0,83,77,67,29.92,29.83,16,6,19,0.00
2013-2-9,84.7,80.3,76.5,74.0,72.2,69.0,88,76,60,29.94,29.85,17,6,17,0.00
2013-2-10,84.8,79.5,73.9,75.0,73.2,71.0,94,81,67,29.97,29.88,13,5,18,0.04
2013-2-11,86.1,80.8,77.3,74.0,71.9,69.0,84,74,65,30.00,29.90,16,7,23,0.00
2013-2-12,85.2,79.4,76.3,75.0,71.5,69.0,90,77,66,30.00,29.90,19,6,19,0.13
2013-2-13,85.2,80.0,76.9,74.0,71.4,69.0,85,75,63,29.98,29.87,14,6,22,0.02
2013-2-14,85.5,80.3,75.7,73.0,71.3,70.0,87,74,63,29.99,29.88,14,7,21,0.03
2013-2-15,85.0,80.6,77.8,75.0,72.5,71.0,82,76,69,29.99,29.85,21,8,25,0.00
2013-2-16,84.4,80.4,77.7,74.0,72.1,70.0,82,76,68,29.94,29.82,17,8,24,0.00
2013-2-17,86.0,80.6,77.8,74.0,72.5,71.0,82,77,66,29.97,29.84,15,8,23,0.00
2013-2-18,86.1,81.0,77.9,75.0,73.1,72.0,87,77,66,29.98,29.87,16,7,21,0.00
2013-2-19,85.4,81.3,79.1,75.0,73.1,72.0,82,76,68,29.96,29.86,16,9,25,0.00
2013-2-20,85.6,81.1,78.6,75.0,73.0,71.0,83,76,68,29.95,29.80,17,8,25,0.00
2013-2-21,85.2,81.0,78.4,75.0,72.9,71.0,82,76,69,29.95,29.82,22,8,24,0.00
2013-2-22,85.5,80.9,77.8,75.0,73.0,71.0,83,77,68,29.98,29.85,14,7,19,0.00
2013-2-23,85.6,81.0,77.9,75.0,73.5,72.0,87,78,67,29.96,29.84,16,7,23,0.00
2013-2-24,85.6,81.1,78.1,76.0,73.7,72.0,84,78,69,29.95,29.81,17,9,23,0.00
2013-2-25,84.2,80.8,78.5,73.0,72.5,71.0,82,76,67,29.92,29.77,17,8,24,0.00
2013-2-26,86.1,81.3,78.5,76.0,73.9,72.0,84,78,71,29.94,29.81,22,9,27,0.00
2013-2-27,86.7,81.8,79.2,76.0,74.9,74.0,85,80,71,29.95,29.80,19,9,24,0.00
2013-2-28,85.7,81.4,79.3,75.0,73.8,73.0,84,78,66,29.92,29.78,19,10,25,0.00
2013-3-1,85.4,81.2,78.8,75.0,73.6,73.0,83,78,68,29.89,29.77,22,8,25,0.00
2013-3-2,86.3,81.2,78.4,76.0,74.1,73.0,84,79,70,29.88,29.77,16,9,26,0.00
2013-3-3,85.9,81.3,79.0,76.0,74.8,74.0,87,81,70,29.91,29.79,18,8,22,0.00
2013-3-4,84.1,80.9,78.9,77.0,75.2,74.0,88,82,76,29.96,29.83,15,7,25,0.00
2013-3-5,85.9,81.3,78.7,77.0,74.7,73.0,86,80,72,29.98,29.88,20,8,23,0.00
2013-3-6,85.2,81.1,78.5,76.0,74.3,73.0,85,80,73,29.98,29.85,18,8,24,0.00
2013-3-7,85.4,81.2,79.0,76.0,74.4,73.0,86,80,70,29.98,29.84,14,7,22,0.00
2013-3-8,86.0,81.3,78.6,76.0,74.2,73.0,85,79,68,29.98,29.85,16,7,23,0.00
2013-3-9,86.6,81.3,78.5,76.0,74.4,73.0,85,79,71,29.93,29.82,17,8,23,0.00
2013-3-10,85.6,81.1,79.2,76.0,74.6,73.0,85,80,72,29.93,29.79,15,8,24,0.00
2013-3-11,85.7,81.3,78.7,77.0,74.5,73.0,85,80,72,29.91,29.79,17,8,22,0.00
2013-3-12,85.6,81.3,78.9,76.0,74.9,74.0,88,81,71,29.95,29.83,17,8,23,0.00
2013-3-13,86.3,81.4,78.8,77.0,75.2,74.0,87,81,70,29.95,29.82,17,8,22,0.01
2013-3-14,85.7,81.1,78.2,75.0,74.3,73.0,86,80,69,29.91,29.80,15,7,19,0.00
2013-3-15,85.8,81.2,78.2,76.0,74.0,72.0,85,79,69,29.92,29.80,14,7,24,0.00
2013-3-16,85.0,80.6,76.2,75.0,73.5,72.0,93,79,69,29.93,29.82,19,8,23,0.14
2013-3-17,85.4,80.8,77.5,75.0,73.0,72.0,88,77,66,29.98,29.87,17,7,24,0.00
2013-3-18,86.2,81.3,78.9,76.0,73.7,72.0,84,78,67,29.97,29.86,14,8,23,0.00
2013-3-19,85.7,81.0,78.6,75.0,73.3,72.0,82,78,66,29.94,29.80,16,7,23,0.00
2013-3-20,86.8,81.0,77.4,74.0,72.9,71.0,84,77,61,29.90,29.77,13,5,17,0.00
2013-3-21,87.3,81.6,77.3,77.0,74.9,73.0,86,80,68,29.89,29.75,14,5,16,0.00
2013-3-22,87.1,82.2,79.2,78.0,76.1,75.0,89,82,72,29.93,29.80,15,7,18,0.00
2013-3-23,86.5,81.9,79.6,78.0,76.3,75.0,88,83,73,29.96,29.83,17,7,22,0.00
2013-3-24,87.2,82.1,79.8,77.0,75.0,74.0,86,79,69,29.92,29.78,17,8,22,0.00
2013-3-25,86.9,82.3,79.4,76.0,74.6,73.0,84,78,68,29.89,29.76,17,9,24,0.00
2013-3-26,87.3,82.2,79.7,76.0,74.3,73.0,84,77,67,29.92,29.79,23,9,26,0.00
2013-3-27,86.9,82.1,79.4,75.0,74.3,73.0,84,77,67,29.95,29.81,17,8,23,0.00
2013-3-28,87.9,82.4,79.4,77.0,75.8,75.0,86,80,69,29.93,29.82,12,6,21,0.00
2013-3-29,86.7,82.1,78.2,78.0,76.7,76.0,94,83,73,29.96,29.84,15,6,23,0.11
2013-3-30,87.2,82.6,80.1,77.0,75.7,75.0,86,80,70,29.97,29.85,16,8,24,0.00
2013-3-31,87.1,82.3,80.2,75.0,74.3,72.0,83,77,64,29.98,29.86,19,9,27,0.00
2013-4-1,87.7,82.4,79.9,75.0,73.1,71.0,83,73,60,29.96,29.82,21,11,25,0.00
2013-4-2,87.8,83.0,80.5,76.0,74.8,74.0,82,76,64,29.95,29.80,24,10,26,0.00
2013-4-3,86.8,82.6,80.2,76.0,75.1,74.0,84,78,68,29.95,29.82,22,10,28,0.00
2013-4-4,86.7,82.2,79.8,76.0,74.5,73.0,83,78,70,29.98,29.86,16,8,31,0.00
2013-4-5,86.6,81.3,78.8,75.0,73.2,72.0,84,76,65,29.97,29.81,17,8,22,0.00
2013-4-6,86.8,82.4,79.8,76.0,74.8,74.0,85,78,67,29.96,29.80,19,8,25,0.00
2013-4-7,87.2,82.6,80.0,77.0,75.6,74.0,86,80,70,29.93,29.81,17,9,25,0.00
2013-4-8,86.9,82.4,80.0,76.0,75.0,74.0,85,78,67,29.93,29.80,20,9,26,0.00
2013-4-9,86.9,82.2,79.7,76.0,74.2,73.0,85,77,66,29.95,29.80,17,8,26,0.00
2013-4-10,87.2,82.4,79.6,75.0,74.2,73.0,84,77,65,29.93,29.80,16,9,24,0.00
2013-4-11,87.3,81.7,77.0,76.0,74.2,73.0,89,78,65,29.92,29.80,15,8,19,0.01
2013-4-12,86.5,81.9,79.6,76.0,74.4,73.0,84,78,67,29.91,29.80,15,7,23,0.00
2013-4-13,86.7,82.8,79.8,77.0,75.3,74.0,86,78,69,29.90,29.76,17,9,27,0.00
2013-4-14,87.8,82.8,80.0,77.0,75.0,73.0,86,78,62,29.89,29.79,19,10,27,0.00
2013-4-15,86.5,82.5,80.2,77.0,76.1,75.0,88,81,71,29.91,29.82,22,10,26,0.00
2013-4-16,86.9,82.3,80.0,78.0,76.3,75.0,87,82,73,29.92,29.80,17,8,23,0.00
2013-4-17,86.8,82.5,80.3,78.0,76.4,75.0,87,82,73,29.89,29.76,18,8,25,0.00
2013-4-18,87.0,82.2,79.7,78.0,76.1,75.0,89,82,70,29.91,29.78,18,8,24,0.00
2013-4-19,86.2,81.7,79.2,77.0,76.0,75.0,89,83,71,29.95,29.82,17,7,22,0.00
2013-4-20,87.7,82.0,79.2,77.0,76.0,75.0,89,82,67,29.95,29.82,14,6,21,0.00
2013-4-21,88.2,82.4,78.5,76.0,75.6,74.0,90,80,65,29.95,29.83,14,5,16,0.00
2013-4-22,86.4,80.8,77.1,77.0,75.1,74.0,94,83,68,29.93,29.82,13,5,18,0.14
2013-4-23,86.8,81.4,77.2,77.0,75.1,73.0,91,81,69,29.91,29.80,11,5,16,0.00
2013-4-24,87.9,82.5,79.1,77.0,76.3,75.0,89,82,68,29.93,29.80,13,6,18,0.00
2013-4-25,85.2,80.8,76.7,78.0,76.2,74.0,95,86,76,29.95,29.81,12,5,21,0.26
2013-4-26,87.8,82.1,77.1,77.0,75.6,74.0,93,81,66,29.94,29.84,14,6,18,0.02
2013-4-27,87.1,82.1,79.2,77.0,75.1,74.0,86,79,68,29.93,29.80,14,5,19,0.08
2013-4-28,87.1,81.9,77.7,77.0,74.9,73.0,87,80,64,29.91,29.78,15,5,17,0.00
2013-4-29,87.0,81.5,76.4,78.0,76.6,75.0,95,85,73,29.88,29.79,14,6,19,0.14
2013-4-30,87.5,82.6,79.9,78.0,76.9,76.0,89,83,71,29.91,29.80,13,6,19,0.00
2013-5-1,86.9,82.6,79.7,78.0,76.9,76.0,89,83,73,29.91,29.78,14,6,24,0.00
2013-5-2,87.2,82.6,79.5,78.0,76.8,76.0,90,83,70,29.89,29.74,16,6,19,0.00
2013-5-3,89.0,83.1,79.3,78.0,76.9,76.0,91,82,68,29.88,29.75,10,4,13,0.00
2013-5-4,89.9,83.8,79.0,79.0,77.5,75.0,94,82,67,29.84,29.72,11,2,18,0.00
2013-5-5,91.1,83.7,78.6,79.0,77.5,76.0,93,82,66,29.89,29.75,11,3,15,0.00
2013-5-6,86.1,81.4,78.6,79.0,77.2,75.0,96,87,77,29.96,29.84,6,2,12,1.34
2013-5-7,85.9,81.2,76.8,79.0,76.5,74.0,96,86,75,29.98,29.87,13,4,19,0.06
2013-5-8,87.3,83.1,80.1,78.0,76.1,74.0,86,79,72,30.02,29.89,22,8,25,0.00
2013-5-9,87.0,83.3,81.0,77.0,76.1,75.0,84,79,72,30.01,29.89,18,9,25,0.00
2013-5-10,87.0,82.9,80.6,77.0,75.6,74.0,85,79,67,30.00,29.85,16,8,21,0.00
2013-5-11,87.9,83.1,80.1,76.0,75.1,74.0,84,77,64,29.96,29.83,14,6,21,0.00
2013-5-12,87.6,83.1,79.7,77.0,75.4,74.0,85,78,69,29.92,29.80,16,6,22,0.00
2013-5-13,87.6,83.5,80.7,77.0,75.6,74.0,83,77,69,29.93,29.83,19,8,23,0.00
2013-5-14,88.1,83.8,81.2,77.0,75.9,75.0,84,77,66,29.94,29.80,17,8,22,0.00
2013-5-15,87.8,83.7,81.0,78.0,76.9,76.0,87,80,70,29.92,29.80,18,8,23,0.00
2013-5-16,87.5,83.2,80.5,77.0,76.0,75.0,87,79,69,29.91,29.83,15,8,23,0.00
2013-5-17,87.3,83.4,80.7,77.0,75.8,74.0,83,78,71,29.94,29.86,21,8,26,0.00
2013-5-18,87.6,83.3,81.0,77.0,76.1,75.0,86,79,70,29.97,29.84,19,8,24,0.00
2013-5-19,87.1,83.5,80.8,78.0,76.6,75.0,85,80,70,29.92,29.81,17,8,26,0.00
2013-5-20,87.4,83.5,81.0,78.0,77.1,76.0,86,81,72,29.91,29.80,17,8,24,0.00
2013-5-21,84.2,81.6,75.1,78.0,76.8,73.0,96,85,78,29.89,29.77,17,7,21,0.27
2013-5-22,87.0,83.2,80.9,77.0,75.5,73.0,84,78,69,29.90,29.80,18,8,23,0.00
2013-5-23,86.6,82.9,80.7,79.0,76.7,75.0,90,81,74,29.93,29.83,14,7,25,0.03
2013-5-24,87.6,83.4,80.8,77.0,75.8,75.0,84,78,66,29.94,29.84,16,7,22,0.00
2013-5-25,87.3,83.4,80.3,77.0,76.4,75.0,86,79,69,29.94,29.83,19,7,22,0.00
2013-5-26,87.6,83.8,81.2,79.0,77.1,76.0,87,80,72,29.94,29.85,15,8,23,0.00
2013-5-27,89.0,83.9,81.0,79.0,77.3,74.0,86,80,70,29.92,29.81,15,7,23,0.00
2013-5-28,87.9,84.0,81.2,79.0,76.9,75.0,84,79,71,29.91,29.81,17,8,24,0.00
2013-5-29,88.2,83.7,80.2,80.0,77.1,75.0,89,80,72,29.91,29.82,16,7,24,0.03
2013-5-30,88.1,83.6,79.2,79.0,77.1,76.0,92,81,70,29.95,29.81,21,8,29,0.10
2013-5-31,88.1,84.1,81.8,78.0,76.7,75.0,84,78,70,29.93,29.83,17,9,26,0.00
2013-6-1,88.6,84.1,81.6,77.0,76.5,76.0,84,78,68,29.96,29.84,17,9,25,0.00
2013-6-2,88.0,83.9,81.4,77.0,76.2,75.0,85,77,67,29.94,29.84,18,8,25,0.00
2013-6-3,88.8,84.2,81.7,79.0,77.0,76.0,84,79,69,29.94,29.82,22,9,26,0.00
2013-6-4,87.4,84.0,80.8,79.0,77.2,76.0,87,80,70,29.94,29.82,19,8,25,0.00
2013-6-5,88.3,83.9,81.4,78.0,76.4,75.0,84,78,68,29.93,29.78,23,9,27,0.00
2013-6-6,88.2,83.9,81.6,78.0,77.0,76.0,85,80,70,29.94,29.82,17,8,25,0.00
2013-6-7,87.9,83.3,81.0,77.0,76.0,75.0,85,78,67,29.94,29.83,17,7,24,0.00
2013-6-8,87.5,83.5,81.1,77.0,75.7,74.0,83,77,68,29.94,29.82,19,8,28,0.00
2013-6-9,88.1,84.0,81.3,78.0,76.2,75.0,83,77,71,29.94,29.83,17,8,23,0.00
2013-6-10,87.8,83.8,81.1,78.0,76.9,76.0,85,80,72,29.92,29.83,17,8,23,0.00
2013-6-11,88.2,84.2,81.3,78.0,77.2,76.0,86,79,72,29.94,29.84,21,9,26,0.00
2013-6-12,88.4,84.2,81.6,79.0,76.7,75.0,83,78,68,29.96,29.87,19,9,23,0.00
2013-6-13,88.2,83.6,80.1,79.0,76.8,76.0,91,80,69,29.95,29.82,17,7,23,0.08
2013-6-14,88.1,83.8,80.3,79.0,77.2,76.0,88,81,70,29.88,29.79,17,8,25,0.00
2013-6-15,88.1,83.8,81.4,79.0,77.6,77.0,87,82,73,29.92,29.82,20,8,23,0.00
2013-6-16,88.0,84.1,81.6,78.0,76.8,75.0,88,79,70,29.92,29.82,18,8,24,0.00
2013-6-17,88.4,84.4,81.9,78.0,76.6,76.0,84,77,69,29.92,29.84,18,10,26,0.01
2013-6-18,88.2,83.9,80.0,78.0,76.6,75.0,87,79,69,29.92,29.82,19,9,27,0.00
2013-6-19,87.9,83.7,80.6,77.0,75.5,74.0,84,77,68,29.91,29.77,17,8,25,0.00
2013-6-20,88.0,83.8,81.7,78.0,76.4,75.0,85,78,67,29.93,29.82,21,10,28,0.00
2013-6-21,87.9,83.5,81.2,77.0,75.6,74.0,83,77,67,29.95,29.86,19,9,25,0.00
2013-6-22,86.9,82.9,79.9,76.0,74.5,73.0,82,76,64,29.94,29.82,19,7,22,0.00
2013-6-23,87.9,83.5,80.8,77.0,75.4,74.0,83,77,68,29.94,29.84,17,8,24,0.00
2013-6-24,88.6,83.8,80.8,78.0,76.2,74.0,85,78,69,29.95,29.86,14,7,21,0.00
2013-6-25,88.8,83.7,80.8,77.0,76.3,75.0,85,78,67,29.95,29.85,17,7,19,0.00
2013-6-26,87.8,83.8,80.6,78.0,76.6,75.0,85,79,69,29.93,29.82,17,7,22,0.00
2013-6-27,87.7,83.9,80.7,77.0,76.3,75.0,87,78,68,29.92,29.80,18,10,26,0.01
2013-6-28,88.1,83.7,81.5,77.0,76.0,75.0,83,77,68,29.91,29.82,23,10,24,0.00
2013-6-29,88.3,83.7,80.7,77.0,76.0,74.0,84,77,68,29.93,29.80,15,6,19,0.00
2013-6-30,87.9,83.1,78.6,78.0,77.0,76.0,94,82,71,29.91,29.79,15,6,21,0.01
2013-7-1,88.3,83.8,81.5,77.0,76.1,75.0,85,77,68,29.96,29.86,19,9,27,0.00
2013-7-2,88.0,83.5,81.0,76.0,75.2,74.0,83,76,65,30.00,29.88,18,7,22,0.00
2013-7-3,87.7,82.8,76.9,76.0,74.8,72.0,92,77,61,29.96,29.85,14,6,19,0.01
2013-7-4,88.2,83.7,80.7,77.0,75.8,74.0,83,77,68,29.97,29.86,17,8,22,0.00
2013-7-5,88.7,83.4,80.7,77.0,75.3,73.0,84,77,66,29.95,29.86,18,7,21,0.00
2013-7-6,87.4,82.6,79.6,77.0,75.2,74.0,84,78,67,29.92,29.79,14,6,19,0.00
2013-7-7,88.3,83.8,81.2,79.0,76.9,74.0,85,79,72,29.89,29.79,18,8,21,0.00
2013-7-8,88.3,84.1,80.9,79.0,77.6,77.0,88,81,70,29.96,29.84,16,7,23,0.00
2013-7-9,88.8,84.2,81.2,78.0,77.1,76.0,86,79,68,29.96,29.84,16,6,21,0.00
2013-7-10,89.9,84.0,80.0,79.0,77.1,75.0,91,80,68,29.94,29.86,15,6,19,0.01
2013-7-11,88.8,84.1,81.4,78.0,76.7,76.0,86,79,67,29.95,29.85,16,8,22,0.00
2013-7-12,89.4,84.1,81.4,77.0,76.7,75.0,85,78,67,29.95,29.85,13,6,19,0.00
2013-7-13,89.4,84.1,80.2,77.0,76.0,75.0,85,77,63,29.93,29.82,15,6,18,0.00
2013-7-14,88.8,84.3,81.2,78.0,76.4,75.0,84,77,68,29.91,29.78,18,8,22,0.00
2013-7-15,86.8,84.4,82.1,79.0,77.3,76.0,85,79,72,29.90,29.80,18,9,23,0.00
2013-7-16,87.7,83.4,81.6,79.0,77.4,75.0,87,82,72,29.94,29.84,18,9,24,0.00
2013-7-17,89.0,84.2,80.9,79.0,77.8,76.0,90,82,71,29.95,29.84,19,8,28,0.00
2013-7-18,88.3,84.0,80.2,79.0,77.8,77.0,89,81,71,29.95,29.84,16,7,26,0.00
2013-7-19,87.5,83.0,80.3,79.0,77.3,76.0,91,83,76,29.96,29.87,16,8,24,0.16
2013-7-20,88.7,84.4,81.7,78.0,76.5,75.0,85,77,69,29.95,29.86,23,10,26,0.00
2013-7-21,87.8,83.4,78.8,78.0,75.8,73.0,86,78,67,29.94,29.84,16,7,23,0.00
2013-7-22,88.3,83.6,78.4,79.0,77.2,76.0,94,81,71,29.96,29.85,17,7,21,0.14
2013-7-23,88.6,84.3,81.9,79.0,77.5,76.0,86,80,70,29.94,29.83,16,8,23,0.00
2013-7-24,88.6,84.4,81.9,79.0,77.5,77.0,86,80,71,29.92,29.82,18,9,25,0.00
2013-7-25,88.4,84.2,81.3,79.0,77.0,75.0,85,79,70,29.97,29.85,17,8,24,0.00
2013-7-26,88.7,84.3,81.8,78.0,76.9,75.0,84,79,69,29.97,29.86,19,9,27,0.00
2013-7-27,82.9,79.8,73.5,78.0,75.6,72.0,97,87,79,30.00,29.86,16,6,21,1.38
2013-7-28,88.0,82.4,78.7,78.0,76.5,76.0,93,82,69,29.94,29.86,13,5,17,0.03
2013-7-29,87.5,83.2,80.1,78.0,76.9,76.0,88,81,73,29.97,29.87,16,7,22,0.00
2013-7-30,88.5,83.7,80.0,79.0,77.5,76.0,90,82,71,30.00,29.87,16,7,21,0.01
2013-7-31,88.1,83.7,80.6,79.0,77.4,76.0,89,81,69,29.97,29.84,16,6,18,0.00
2013-8-1,88.0,83.6,81.2,79.0,77.3,76.0,88,81,70,29.94,29.83,20,7,25,0.00
2013-8-2,87.8,84.0,81.5,79.0,77.9,77.0,88,82,73,29.98,29.87,14,7,22,0.00
2013-8-3,87.1,82.8,78.3,81.0,78.9,76.0,95,88,80,29.99,29.86,15,6,21,0.50
2013-8-4,88.1,83.8,81.2,80.0,78.6,77.0,91,84,75,29.97,29.82,13,6,19,0.00
2013-8-5,88.1,83.5,80.8,79.0,78.1,77.0,92,84,70,29.96,29.82,13,5,16,0.00
2013-8-6,88.4,83.8,80.6,79.0,76.9,74.0,90,80,65,29.92,29.79,14,6,17,0.00
2013-8-7,88.4,84.0,80.7,79.0,77.2,76.0,87,80,69,29.88,29.75,15,6,18,0.00
2013-8-8,92.9,84.6,79.0,80.0,77.4,75.0,93,80,61,29.83,29.70,9,3,17,0.00
2013-8-9,87.4,83.4,80.9,79.0,77.4,76.0,89,82,73,29.86,29.76,16,6,22,0.00
2013-8-10,87.9,83.7,80.4,78.0,76.9,75.0,88,80,68,29.88,29.76,14,6,19,0.00
2013-8-11,88.9,83.0,77.8,78.0,76.9,74.0,94,82,69,29.88,29.78,14,5,19,0.09
2013-8-12,86.4,82.2,76.4,79.0,77.2,74.0,94,85,74,29.90,29.79,14,6,19,0.09
2013-8-13,88.0,83.9,81.3,78.0,77.1,76.0,86,80,70,29.91,29.81,16,7,22,0.00
2013-8-14,88.8,83.9,80.5,80.0,77.7,76.0,90,82,70,29.91,29.78,15,8,27,0.04
2013-8-15,88.6,84.0,81.7,79.0,77.6,77.0,86,81,70,29.91,29.81,16,8,24,0.00
2013-8-16,89.3,83.9,80.2,78.0,75.6,72.0,87,77,57,29.90,29.79,13,6,18,0.00
2013-8-17,88.6,83.8,80.5,78.0,76.4,75.0,86,78,66,29.90,29.79,17,7,20,0.00
2013-8-18,90.1,84.8,80.9,78.0,76.7,75.0,85,77,63,29.91,29.79,13,6,18,0.00
2013-8-19,89.9,84.3,78.8,79.0,77.1,75.0,92,79,64,29.87,29.74,11,4,18,0.00
2013-8-20,91.7,85.4,81.9,80.0,77.9,76.0,86,78,61,29.89,29.75,14,6,19,0.00
2013-8-21,89.8,84.9,80.5,79.0,77.2,75.0,91,78,66,29.91,29.80,17,8,24,0.06
2013-8-22,89.4,84.8,81.9,80.0,77.9,77.0,86,80,69,29.88,29.76,16,7,19,0.00
2013-8-23,89.7,85.2,82.3,78.0,77.0,76.0,85,77,67,29.88,29.77,15,8,23,0.00
2013-8-24,89.7,84.8,79.9,78.0,76.3,73.0,84,76,66,29.92,29.83,14,6,23,0.00
2013-8-25,88.9,84.3,80.6,79.0,77.5,74.0,86,80,70,29.91,29.80,13,6,18,0.00
2013-8-26,89.4,84.7,81.5,79.0,77.4,76.0,85,78,67,29.91,29.78,16,6,18,0.00
2013-8-27,90.2,84.7,80.7,79.0,77.3,76.0,87,79,63,29.91,29.78,12,4,18,0.00
2013-8-28,89.8,84.7,81.5,80.0,77.9,77.0,87,80,68,29.92,29.81,14,6,18,0.00
2013-8-29,91.6,85.8,81.9,80.0,76.8,73.0,87,75,60,29.91,29.79,11,5,19,0.00
2013-8-30,90.7,85.8,82.4,79.0,76.3,72.0,87,74,56,29.92,29.80,13,5,17,0.00
2013-8-31,91.9,84.2,76.8,79.0,77.1,75.0,94,80,58,29.91,29.79,13,3,15,0.03
2013-9-1,91.0,85.2,80.8,79.0,76.8,74.0,86,76,59,29.89,29.77,14,5,17,0.00
2013-9-2,87.6,81.1,76.5,80.0,76.9,75.0,95,87,71,29.91,29.75,8,2,19,0.34
2013-9-3,88.6,80.8,74.5,79.0,76.4,73.0,97,87,69,29.86,29.72,9,2,15,0.54
2013-9-4,93.2,84.1,78.0,81.0,78.0,76.0,94,82,63,29.88,29.75,7,2,11,0.00
2013-9-5,89.7,83.9,77.0,82.0,79.0,75.0,96,85,73,29.89,29.74,9,2,14,0.41
2013-9-6,91.9,86.0,81.6,81.0,77.9,74.0,88,77,56,29.88,29.73,13,4,17,0.00
2013-9-7,92.2,86.3,83.4,81.0,78.3,72.0,87,77,53,29.90,29.76,10,5,18,0.00
2013-9-8,89.4,85.0,82.9,80.0,79.1,78.0,88,82,73,29.87,29.75,14,6,18,0.00
2013-9-9,89.8,85.5,83.2,80.0,78.5,76.0,86,79,70,29.91,29.78,16,8,24,0.00
2013-9-10,89.0,85.0,82.7,79.0,77.3,76.0,84,78,67,29.93,29.82,17,7,21,0.00
2013-9-11,89.7,84.1,80.2,79.0,77.7,73.0,89,81,67,29.90,29.79,13,5,16,0.00
2013-9-12,91.5,84.9,80.8,79.0,77.0,74.0,89,78,59,29.84,29.72,11,3,13,0.00
2013-9-13,92.2,83.9,78.1,79.0,76.9,73.0,92,80,58,29.79,29.67,8,2,12,0.00
2013-9-14,90.5,85.2,81.7,80.0,78.0,76.0,86,79,68,29.84,29.73,14,5,19,0.00
2013-9-15,90.8,86.2,83.3,82.0,79.2,78.0,94,80,69,29.87,29.76,19,8,24,0.12
2013-9-16,89.4,85.3,83.4,80.0,78.3,77.0,86,80,71,29.90,29.74,15,8,26,0.00
2013-9-17,89.4,84.3,78.6,80.0,78.8,77.0,95,83,73,29.89,29.75,14,5,17,0.18
2013-9-18,89.4,85.1,78.8,81.0,79.0,76.0,94,82,70,29.87,29.74,18,6,26,0.12
2013-9-19,91.1,85.7,80.3,82.0,79.9,76.0,90,83,69,29.90,29.78,11,5,19,0.00
2013-9-20,95.1,86.0,82.4,81.0,79.9,79.0,91,82,63,29.89,29.76,11,4,16,0.00
2013-9-21,93.2,85.9,80.2,81.0,78.7,77.0,91,80,62,29.84,29.73,10,3,15,0.00
2013-9-22,92.3,86.5,82.8,81.0,79.2,77.0,87,79,67,29.87,29.75,13,5,22,0.00
2013-9-23,92.4,86.4,83.3,82.0,80.0,78.0,87,81,69,29.93,29.80,14,6,21,0.00
2013-9-24,92.6,86.3,83.3,80.0,78.1,76.0,84,77,64,29.90,29.76,13,7,21,0.00
2013-9-25,92.4,85.8,82.9,80.0,78.3,77.0,86,78,66,29.86,29.72,14,6,22,0.00
2013-9-26,92.6,85.7,82.7,81.0,78.5,77.0,86,79,65,29.85,29.74,19,6,19,0.00
2013-9-27,91.9,85.6,82.7,80.0,78.1,76.0,87,79,61,29.89,29.75,15,6,22,0.00
2013-9-28,91.7,85.7,82.7,80.0,78.4,77.0,85,79,67,29.91,29.77,13,6,22,0.00
2013-9-29,92.3,86.0,82.4,81.0,78.9,78.0,86,80,64,29.90,29.77,13,5,21,0.00
2013-9-30,92.1,86.2,82.7,80.0,78.2,76.0,84,77,65,29.90,29.79,14,6,23,0.00
2013-10-1,92.5,86.4,83.3,79.0,77.8,76.0,84,75,64,29.93,29.81,14,6,21,0.00
2013-10-2,92.7,85.6,81.2,78.0,76.8,76.0,85,75,60,29.88,29.76,11,5,18,0.00
2013-10-3,92.1,85.4,82.1,79.0,78.0,76.0,86,78,62,29.89,29.73,13,5,19,0.00
2013-10-4,88.9,84.3,80.0,80.0,78.6,77.0,93,83,73,29.90,29.79,11,4,16,0.09
2013-10-5,92.6,85.4,80.7,80.0,78.6,77.0,90,81,64,29.91,29.76,10,4,15,0.00
2013-10-6,92.2,85.6,81.6,80.0,78.3,77.0,89,79,64,29.89,29.77,11,5,18,0.00
2013-10-7,91.9,85.6,81.9,80.0,78.3,76.0,87,79,66,29.91,29.78,13,5,19,0.00
2013-10-8,91.1,85.3,81.7,81.0,78.7,78.0,89,81,67,29.91,29.77,10,5,16,0.00
2013-10-9,90.8,85.3,82.5,80.0,78.0,76.0,87,79,69,29.90,29.78,12,6,21,0.00
2013-10-10,91.8,85.0,81.4,78.0,76.3,74.0,83,75,61,29.89,29.75,15,5,17,0.00
2013-10-11,90.7,84.5,79.9,79.0,77.4,76.0,91,79,67,29.86,29.75,18,5,18,0.02
2013-10-12,90.8,85.2,80.9,79.0,77.5,76.0,87,78,67,29.86,29.74,16,6,21,0.00
2013-10-13,92.3,85.6,82.4,80.0,77.8,77.0,85,78,63,29.86,29.74,13,5,19,0.00
2013-10-14,91.7,85.3,81.9,79.0,77.6,76.0,85,78,64,29.85,29.73,14,6,21,0.00
2013-10-15,91.5,85.4,82.3,80.0,78.0,76.0,86,78,67,29.88,29.75,15,6,18,0.00
2013-10-16,93.4,85.6,82.0,79.0,78.3,77.0,87,79,61,29.87,29.74,11,4,16,0.00
2013-10-17,92.9,85.1,81.7,80.0,78.6,76.0,89,81,64,29.90,29.76,10,3,14,0.00
2013-10-18,91.5,84.0,78.4,79.0,76.6,75.0,89,79,64,29.91,29.78,13,3,18,0.00
2013-10-19,92.4,85.1,79.7,79.0,77.2,75.0,87,77,61,29.90,29.78,10,4,15,0.00
2013-10-20,92.6,85.8,81.9,79.0,77.7,76.0,85,77,61,29.91,29.75,12,4,16,0.00
2013-10-21,89.6,83.9,76.2,81.0,77.9,73.0,95,82,72,29.90,29.75,12,4,19,0.53
2013-10-22,90.3,84.7,80.9,79.0,77.3,76.0,86,79,68,29.87,29.75,14,6,19,0.00
2013-10-23,91.3,84.6,79.6,79.0,77.9,76.0,93,80,65,29.87,29.74,9,4,15,0.07
2013-10-24,90.8,84.2,82.1,79.0,77.7,77.0,87,81,68,29.89,29.80,13,5,21,0.00
2013-10-25,90.3,85.0,82.0,79.0,77.6,76.0,85,78,68,29.92,29.79,16,7,21,0.00
2013-10-26,92.2,85.2,81.8,80.0,78.0,77.0,86,79,62,29.88,29.77,13,6,18,0.00
2013-10-27,91.7,85.1,81.2,80.0,77.8,76.0,89,79,63,29.90,29.77,16,6,22,0.01
2013-10-28,91.7,84.5,81.6,78.0,76.1,74.0,84,76,61,29.92,29.80,11,5,19,0.00
2013-10-29,88.5,83.3,78.9,81.0,77.6,75.0,94,83,72,29.89,29.76,12,4,16,0.30
2013-10-30,90.4,81.5,77.3,79.0,76.6,75.0,94,85,67,29.89,29.77,13,3,16,0.46
2013-10-31,81.1,77.6,74.4,78.0,74.9,73.0,96,91,83,29.87,29.74,12,2,21,0.96
2013-11-1,83.6,77.7,72.5,78.0,75.1,72.0,98,91,78,29.85,29.70,14,3,16,2.14
2013-11-2,87.7,82.4,78.8,80.0,77.9,75.0,93,86,76,29.88,29.74,8,3,16,0.07
2013-11-3,85.6,78.9,75.3,78.0,76.0,74.0,96,91,73,29.92,29.78,4,1,9,0.24
2013-11-4,91.0,80.6,73.3,79.0,75.9,72.0,98,86,66,29.87,29.75,7,1,11,0.03
2013-11-5,90.0,82.0,75.8,79.0,76.6,75.0,97,84,65,29.86,29.75,8,2,14,0.01
2013-11-6,89.6,82.3,77.6,77.0,75.3,73.0,89,80,60,29.86,29.74,10,3,15,0.00
2013-11-7,89.5,83.0,79.5,79.0,76.5,74.0,87,81,69,29.86,29.75,12,4,16,0.00
2013-11-8,88.8,83.2,79.6,79.0,77.1,76.0,89,82,72,29.89,29.75,13,4,18,0.00
2013-11-9,90.1,84.1,81.2,79.0,77.2,76.0,86,80,68,29.91,29.80,13,6,24,0.00
2013-11-10,89.9,84.1,80.9,79.0,76.8,75.0,85,79,68,29.90,29.79,11,5,19,0.02
2013-11-11,88.1,82.8,76.6,79.0,76.6,74.0,94,81,71,29.92,29.80,15,6,19,0.09
2013-11-12,89.0,83.7,81.0,79.0,77.2,76.0,87,81,71,29.88,29.76,13,7,19,0.01
2013-11-13,89.5,84.0,81.2,79.0,76.7,76.0,86,79,69,29.87,29.76,15,6,23,0.00
2013-11-14,90.2,84.0,81.0,79.0,77.0,76.0,86,79,68,29.91,29.78,14,5,19,0.00
2013-11-15,87.4,81.3,76.1,80.0,76.9,75.0,97,87,74,29.92,29.77,15,4,19,0.70
2013-11-16,90.1,82.9,78.5,79.0,76.5,75.0,92,81,67,29.90,29.78,10,4,15,0.00
2013-11-17,91.2,81.8,74.3,77.0,74.7,73.0,96,80,60,29.86,29.73,9,2,10,0.00
2013-11-18,91.2,80.2,73.7,78.0,74.8,72.0,96,84,58,29.82,29.70,6,1,9,0.07
2013-11-19,91.5,80.3,71.3,77.0,72.8,70.0,98,80,51,29.83,29.72,5,1,9,0.01
2013-11-20,89.4,81.6,73.6,78.0,75.5,72.0,95,82,65,29.91,29.80,12,3,15,0.00
2013-11-21,89.4,84.0,80.9,80.0,77.3,76.0,87,80,65,29.93,29.82,11,5,17,0.00
2013-11-22,88.1,82.2,76.9,79.0,76.5,74.0,94,83,70,29.91,29.79,10,3,16,0.08
2013-11-23,88.4,82.7,78.6,78.0,75.6,73.0,89,79,68,29.86,29.75,11,4,16,0.00
2013-11-24,89.3,82.7,77.5,78.0,75.6,73.0,88,79,66,29.86,29.77,13,3,14,0.00
2013-11-25,89.8,83.0,79.4,79.0,76.5,74.0,88,81,69,29.89,29.80,13,5,22,0.00
2013-11-26,87.6,81.7,77.6,78.0,76.1,73.0,94,83,72,29.89,29.77,13,5,19,0.15
2013-11-27,89.0,81.9,75.6,78.0,75.7,72.0,93,82,65,29.87,29.75,11,5,21,0.07
2013-11-28,89.5,83.1,78.9,77.0,74.5,72.0,84,76,65,29.91,29.78,17,5,21,0.00
2013-11-29,88.3,81.9,75.7,75.0,73.5,71.0,91,76,64,29.92,29.81,14,4,18,0.06
2013-11-30,87.8,80.8,75.3,77.0,74.1,72.0,90,80,67,29.91,29.77,12,2,15,0.06
2013-12-1,88.6,80.9,74.3,76.0,73.9,72.0,92,80,63,29.88,29.79,8,2,13,0.00
2013-12-2,89.5,82.4,76.2,79.0,75.5,73.0,91,80,67,29.87,29.74,9,3,14,0.02
2013-12-3,88.4,83.1,79.8,79.0,77.5,76.0,89,83,73,29.93,29.83,14,4,18,0.00
2013-12-4,88.1,83.2,80.9,79.0,77.3,76.0,88,82,72,29.93,29.83,13,5,19,0.00
2013-12-5,88.8,83.1,80.2,77.0,75.6,74.0,86,78,66,29.94,29.84,14,5,18,0.00
2013-12-6,88.8,82.5,79.6,76.0,74.6,73.0,84,77,66,29.94,29.84,13,5,18,0.00
2013-12-7,89.3,82.5,79.0,77.0,74.3,71.0,86,76,65,29.95,29.84,12,4,16,0.00
2013-12-8,87.6,79.6,74.0,78.0,74.2,72.0,94,84,65,29.94,29.84,8,3,18,0.13
2013-12-9,87.6,82.3,79.3,78.0,76.4,74.0,87,82,73,29.96,29.86,14,5,19,0.02
2013-12-10,86.5,81.5,78.9,78.0,75.6,73.0,90,82,72,29.98,29.87,12,6,22,0.01
2013-12-11,88.5,82.5,79.4,78.0,74.7,73.0,87,77,68,29.97,29.86,13,5,22,0.00
2013-12-12,85.8,81.5,79.1,79.0,75.1,73.0,91,80,73,29.94,29.83,13,6,19,0.06
2013-12-13,87.3,82.0,78.9,77.0,75.0,73.0,86,79,68,29.92,29.81,16,6,21,0.00
2013-12-14,88.2,82.7,80.0,77.0,75.4,74.0,85,79,67,29.94,29.84,18,7,26,0.00
2013-12-15,84.9,80.9,77.5,79.0,75.3,72.0,95,83,75,29.96,29.84,14,6,25,0.28
2013-12-16,87.9,82.1,79.2,77.0,74.8,73.0,86,78,68,29.96,29.84,13,6,21,0.00
2013-12-17,87.5,82.0,78.8,76.0,74.1,72.0,84,77,67,29.96,29.83,15,6,21,0.00
2013-12-18,88.8,81.7,76.4,77.0,74.1,71.0,88,78,66,29.95,29.84,14,5,21,0.00
2013-12-19,87.8,81.0,74.9,75.0,73.6,71.0,93,79,64,29.96,29.85,14,5,22,0.09
2013-12-20,86.8,79.9,72.4,76.0,73.7,70.0,96,82,65,29.94,29.83,14,5,21,0.24
2013-12-21,87.4,80.5,74.3,76.0,74.2,72.0,95,81,67,29.94,29.84,14,5,17,0.11
2013-12-22,85.2,79.6,76.4,77.0,73.7,71.0,90,82,67,29.98,29.87,11,5,17,0.06
2013-12-23,87.4,80.9,76.7,76.0,73.9,72.0,89,79,67,29.97,29.85,8,4,17,0.00
2013-12-24,89.3,78.9,72.2,75.0,72.4,71.0,97,82,61,29.93,29.82,8,2,13,0.00
2013-12-25,88.9,78.8,70.9,76.0,73.1,70.0,97,83,62,29.92,29.82,11,2,17,0.00
2013-12-26,87.3,81.4,75.7,78.0,75.4,73.0,93,82,70,29.98,29.85,12,4,16,0.00
2013-12-27,87.3,81.7,77.9,78.0,75.7,73.0,91,82,70,30.00,29.89,16,6,17,0.02
2013-12-28,87.8,81.7,78.8,77.0,74.8,73.0,86,79,67,29.99,29.88,12,5,19,0.00
2013-12-29,87.4,81.3,78.4,77.0,74.4,73.0,87,80,68,29.95,29.83,20,6,21,0.02
2013-12-30,87.2,81.4,77.8,78.0,75.5,73.0,91,82,71,29.96,29.86,15,6,17,0.02
2013-12-31,89.3,82.1,79.0,77.0,75.1,73.0,86,79,66,29.98,29.88,17,6,23,0.01
2014-1-1,88.0,81.6,74.6,76.0,74.4,72.0,95,79,66,29.96,29.84,17,6,25,0.57
2014-1-2,83.1,76.2,73.0,78.0,74.1,71.0,97,93,80,29.93,29.82,14,5,22,1.91